Search your local weather  

 
Advertise Here

Hazardous Weather Conditions

No active alerts for PHOENIX, ARIZONA

Current Conditions: PHOENIX, ARIZONA

Fair


110.0 F

Last Updated on Jul 12 2020, 6:53 pm MST
Humidity: 15%
Wind Speed: SW 10.4 mph
Barometer 29.70 in
Dewpoint: 52.0 F
Visibility: 10.00 mi
Precip: --
Heat Index: 108 F
Wind Chill: NA
Current conditions at:

Phoenix, Phoenix-Deer Valley Municipal Airport, AZ (KDVT)

Lat: 33.69026 Lon: -112.06618

Local Radar Image active severe weather and emergency alerts image image weather storm and storm spotter reports image weather observation monitoring service image
Local
Radar
Active
Alerts
Storm Reports Weather
Monitoring

5 Day Forecast for PHOENIX, ARIZONA (85003)

Sunday

Hot

High 116 °F
Sunday
Night
Mostly Clear

Low 92 °F
Monday

Mostly Sunny

High 113 °F
Monday
Night
Mostly Clear

Low 90 °F
Tuesday

Partly Sunny

High 110 °F
Tuesday
Night
Partly Cloudy

Low 87 °F
Wednesday

Partly Sunny

High 110 °F
Wednesday
Night
Partly Cloudy

Low 88 °F
Thursday

Partly Sunny

High 110 °F

Sign-up For Email & Text Message Weather Alert Notification Services


Advertise Here

Observation History for PHOENIX, ARIZONA


Time Wind
(mph)
Vis
(mi)
Weather Precip (in) Temperature (F) Relative
Humidity
Wind
Chill
(F)
Heat
Index
(F)
Pressure
Air Dwpt altimeter
(in)
sea level
(mb)
6:53 pm MST SW 10.4 10.00 Fair -- 110.0 52.0 15% NA 108 29.70 1002.4
5:53 pm MST W 9.2 10.00 Fair -- 111.0 53.1 15% NA 109 29.70 1002.4
4:53 pm MST W 11.5 10.00 Fair -- 113.0 53.1 14% NA 111 29.70 1002.6
3:53 pm MST 10.00 Fair -- 111.0 54.0 15% NA 110 29.73 1003.6
2:53 pm MST W 11.5 G 18.4 10.00 Fair -- 112.0 55.0 15% NA 111 29.76 1004.5
1:53 pm MST W 9.2 G 17.3 10.00 Fair -- 109.0 55.9 17% NA 108 29.79 1005.4
12:53 pm MST SW 8.1 10.00 Fair -- 106.0 57.9 21% NA 106 29.82 1006.4
11:53 am MST 4.6 10.00 Fair -- 102.0 57.9 23% NA 102 29.85 1007.8
10:53 am MST N 0.0 10.00 Fair -- 101.0 59.0 25% NA 101 29.87 1008.4
9:53 am MST SW 5.8 10.00 Fair -- 99.0 57.9 26% NA 98 29.88 1008.6
8:53 am MST N 0.0 10.00 Fair -- 95.0 60.1 31% NA 95 29.89 1009.1
7:53 am MST N 0.0 10.00 Fair -- 93.0 59.0 32% NA 92 29.89 1009.2
6:53 am MST N 0.0 10.00 Fair -- 94.0 59.0 31% NA 93 29.88 1008.6
5:53 am MST E 3.5 10.00 Fair -- 91.0 59.0 34% NA 90 29.87 1008.1
4:53 am MST E 4.6 10.00 Fair -- 89.0 57.9 35% NA 88 29.84 1007.3
3:53 am MST N 5.8 10.00 Fair -- 89.0 57.9 35% NA 88 29.83 1006.9
2:53 am MST N 5.8 10.00 Fair -- 93.0 59.0 32% NA 92 29.83 1007.0
1:53 am MST W 6.9 10.00 Fair -- 94.0 57.9 30% NA 93 29.85 1007.6
12:53 am MST S 6.9 10.00 Fair -- 96.0 55.9 26% NA 94 29.87 1008.1
11:53 pm MST S 3.5 10.00 Fair -- 97.0 55.0 24% NA 95 29.86 1008.1
10:53 pm MST 5.8 9.00 Fair -- 99.0 54.0 22% NA 97 29.87 1008.4
9:53 pm MST SW 6.9 10.00 Fair -- 102.0 53.1 19% NA 100 29.86 1007.9
8:53 pm MST SE 5.8 10.00 Fair -- 102.0 51.1 18% NA 99 29.84 1007.3
7:53 pm MST 4.6 10.00 Fair -- 105.0 51.1 16% NA 102 29.83 1006.9

Regional Weather Observation

Glendale, Glendale Municipal Airport, AZ (KGEU)

Partly Cloudy
115.0 F

Luke Air Force Base / Phoenix, AZ (KLUF)

Fair
114.0 F

Phoenix, Phoenix Sky Harbor International Airport, AZ (KPHX)

Partly Cloudy
113.0 F

Goodyear Municipal, AZ (KGYR)

A Few Clouds
115.0 F

Buckeye Municipal Airport, AZ (KBXK)

Fair
109.0 F

Scottsdale Airport, AZ (KSDL)

Fair
111.0 F
Advertise Here

Advertise Here